Location: Gleizolles
(44.4833°N, 6.7667°E)
Time: 03:45:19
(UTC+00:00)

Vanguard 1 Rocket - Pass Details

Date: 23 June 2024
Orbit: 650 x 4219 km, 34.3° (Epoch: 15 July)

Event Time Altitude Azimuth Distance (km) Brightness Sun altitude
Rises 06:56:59 0° 281° (WNW) 7,628 11.6 30.5°
Reaches altitude 10° 07:02:15 10° 275° (W) 6,934 11.4 31.4°
Maximum altitude 07:23:49 40° 217° (SW) 5,296 11.3 35.2°
Drops below altitude 10° 07:44:05 10° 157° (SSE) 6,475 12.2 38.9°
Sets 07:48:53 0° 150° (SSE) 7,096 12.3 39.7°
